W2DEN Weather Reports


Display with metric or nautical units.
time (UTC)temp
F
wind
direction
speed
MPH
gust
MPH
rain 1hr
in
rain 24hr
in
rain mn
in
humidity
%
barometer
mb
20260505085418 50 0.0 0.0 0.00 0.00 0.00 95 1016.3
20260505084418 51 0.0 0.0 0.00 0.00 0.00 95 1016.4
20260505083417 51 0.0 0.0 0.00 0.00 0.00 95 1016.4
20260505082417 51 0.0 0.0 0.00 0.00 0.00 94 1016.1
20260505081417 51 0.0 0.0 0.00 0.00 0.00 94 1016.1
20260505080508 52 0.0 0.0 0.00 0.00 0.00 95 1016.1
20260505080338 52 0.0 0.0 0.00 0.00 0.00 95 1016.1
20260505075317 52 0.0 0.0 0.00 0.00 0.00 94 1015.9
20260505074317 52 0.0 0.0 0.00 0.00 0.00 94 1015.9
20260505073317 52 0.0 0.0 0.00 0.00 0.00 94 1015.9
20260505072317 53 0.0 0.0 0.00 0.00 0.00 94 1015.9
20260505071318 53 0.0 0.0 0.00 0.00 0.00 94 1015.9
20260505070318 53 0.0 0.0 0.00 0.00 0.00 94 1015.9
20260505065319 53 0.0 0.0 0.00 0.00 0.00 94 1015.9
20260505064319 53 0.0 0.0 0.00 0.00 0.00 94 1015.9
20260505063318 53 0.0 0.0 0.00 0.00 0.00 94 1016.0
20260505062317 53 0.0 0.0 0.00 0.00 0.00 93 1016.0
20260505061318 53 0.0 0.0 0.00 0.00 0.00 93 1016.1
20260505060318 53 0.0 0.0 0.00 0.00 0.00 93 1016.4
20260505055339 54 0.0 0.0 0.00 0.00 0.00 93 1016.5
20260505054318 54 0.0 0.0 0.00 0.00 0.00 93 1016.6
20260505053318 54 0.0 0.0 0.00 0.00 0.00 93 1016.7
20260505052318 54 0.0 0.0 0.00 0.00 0.00 93 1016.9
20260505051318 53 0.0 0.0 0.00 0.00 0.00 92 1017.0
20260505050318 54 0.0 0.0 0.00 0.00 0.00 91 1017.1
20260505041738 54 0.0 0.0 0.00 0.00 0.00 88 1017.1
20260505040717 55 0.0 0.0 0.00 0.00 0.00 88 1017.3
20260505035716 55 0.0 0.0 0.00 0.00 0.00 86 1017.4
20260505034716 56 0.0 0.0 0.00 0.00 0.00 85 1017.3
20260505033716 56 0.0 0.0 0.00 0.00 0.00 84 1017.4
20260505032716 56 0.0 0.0 0.00 0.00 0.00 84 1017.4
20260505031717 57 0.0 0.0 0.00 0.00 0.00 82 1017.4
20260505030716 57 0.0 0.0 0.00 0.00 0.00 82 1017.3
20260505025716 57 0.0 0.0 0.00 0.00 0.00 80 1017.3
20260505024715 58 0.0 0.0 0.00 0.00 0.00 79 1017.3
20260505023717 58 0.0 0.0 0.00 0.00 0.00 78 1017.1
20260505022717 59 0.0 0.0 0.00 0.00 0.00 78 1017.1
20260505021717 59 0.0 0.0 0.00 0.00 0.00 77 1017.1
20260505020717 59 0.0 0.0 0.00 0.00 0.00 75 1017.1
20260505015717 60 0.0 0.0 0.00 0.00 0.00 74 1016.9
20260505014717 61 0.0 0.0 0.00 0.00 0.00 73 1016.9
20260505013716 61 0.0 0.0 0.00 0.00 0.00 71 1016.8
20260505012716 62 0.0 0.0 0.00 0.00 0.00 69 1016.8
20260505011715 63 0.0 0.0 0.00 0.00 0.00 67 1016.8
20260505010717 63 0.0 0.0 0.00 0.00 0.00 66 1016.8
20260505005717 64 0.0 0.0 0.00 0.00 0.00 65 1016.8
20260505004716 65 0.0 0.0 0.00 0.00 0.00 64 1016.6
20260505003716 66 0.0 0.0 0.00 0.00 0.00 62 1016.6
20260505002739 66 0.0 0.0 0.00 0.00 0.00 60 1016.4
20260505001719 67 0.0 0.0 0.00 0.00 0.00 58 1016.4
20260505000718 68 0.0 0.0 0.00 0.00 0.00 56 1016.4
20260504235719 69 0.0 0.0 0.00 0.00 0.00 54 1016.3
20260504234718 70 0.0 0.0 0.00 0.00 0.00 52 1016.0
20260504233718 70 0.0 1.0 0.00 0.00 0.00 51 1016.0
20260504232717 70 0.0 0.0 0.00 0.00 0.00 48 1016.0
20260504231719 71 0.0 0.0 0.00 0.00 0.00 49 1015.9
20260504230719 71 0.0 1.0 0.00 0.00 0.00 49 1015.9
20260504225718 72 45 1.0 2.0 0.00 0.00 0.00 48 1015.8
20260504224758 72 0.0 1.0 0.00 0.00 0.00 46 1015.9
20260504223718 73 158 2.0 5.0 0.00 0.00 0.00 44 1015.8
20260504222718 74 23 1.0 2.0 0.00 0.00 0.00 43 1015.9
20260504220758 75 23 1.0 2.0 0.00 0.00 0.00 44 1016.0
20260504215738 75 180 1.0 1.0 0.00 0.00 0.00 44 1015.9
20260504214738 77 45 1.0 3.0 0.00 0.00 0.00 43 1015.9
20260504213717 77 135 1.0 3.0 0.00 0.00 0.00 42 1016.0
20260504212719 77 23 1.0 2.0 0.00 0.00 0.00 43 1015.8
20260504211718 78 158 1.0 2.0 0.00 0.00 0.00 40 1015.8
20260504210819 79 158 1.0 3.0 0.00 0.00 0.00 40 1015.9
20260504205718 79 158 2.0 6.0 0.00 0.00 0.00 40 1015.7
20260504204719 79 180 1.0 1.0 0.00 0.00 0.00 40 1015.9
20260504203718 80 158 2.0 5.0 0.00 0.00 0.00 38 1016.0
20260504202718 80 158 1.0 2.0 0.00 0.00 0.00 40 1016.2
20260504201717 81 158 1.0 2.0 0.00 0.00 0.00 37 1016.1
20260504200758 81 158 2.0 2.0 0.00 0.00 0.00 36 1016.1
20260504195758 82 0.0 0.0 0.00 0.00 0.00 35 1016.2
20260504194717 82 0.0 1.0 0.00 0.00 0.00 36 1016.2
20260504193739 82 68 1.0 2.0 0.00 0.00 0.00 32 1016.4
20260504192718 82 23 1.0 2.0 0.00 0.00 0.00 31 1016.6
20260504191737 81 0.0 1.0 0.00 0.00 0.00 32 1016.7
20260504190718 81 23 1.0 2.0 0.00 0.00 0.00 34 1016.8
20260504185718 82 45 3.0 6.0 0.00 0.00 0.00 30 1016.8
20260504184718 81 68 1.0 1.0 0.00 0.00 0.00 33 1016.9
20260504183718 80 0 1.0 2.0 0.00 0.00 0.00 32 1016.9
20260504182758 82 23 2.0 2.0 0.00 0.00 0.00 32 1017.1
20260504181717 81 23 1.0 2.0 0.00 0.00 0.00 35 1017.0
20260504180718 81 0.0 1.0 0.00 0.00 0.00 33 1017.0
20260504175718 81 23 1.0 2.0 0.00 0.00 0.00 37 1017.0
20260504174718 80 0.0 1.0 0.00 0.00 0.00 38 1017.2
20260504173718 80 0.0 1.0 0.00 0.00 0.00 39 1017.4
20260504172718 79 158 1.0 2.0 0.00 0.00 0.00 36 1017.2
20260504171718 79 23 2.0 3.0 0.00 0.00 0.00 37 1017.4
20260504170717 79 0.0 1.0 0.00 0.00 0.00 33 1017.6
20260504150718 74 68 1.0 1.0 0.00 0.00 0.00 48 1018.5
20260504140717 70 0.0 3.0 0.00 0.00 0.00 62 1018.7
20260504130717 63 0.0 2.0 0.00 0.00 0.00 82 1018.6
20260504110718 45 0.0 0.0 0.00 0.00 0.00 96 1018.2